This is the latest recevied weather packets stored in our database for station/object WA4TPR. If no packets are shown the sender has not sent any weather packets the latest 10 day(s).
| Time | Temp. | Humidity | Pressure | Rain* | Wind** | Luminosity | Snow |
|---|---|---|---|---|---|---|---|
| 1778163355 | 28.89° C | 76% | 1020.8 hPa | 0 mm | - | 499 W/m² | - |
| 1778163052 | 28.89° C | 77% | 1020.8 hPa | 0 mm | - | 488 W/m² | - |
| 1778162749 | 27.78° C | 80% | 1020.9 hPa | 0 mm | - | 472 W/m² | - |
| 1778162446 | 27.78° C | 80% | 1020.9 hPa | 0 mm | - | 452 W/m² | - |
| 1778162143 | 27.78° C | 80% | 1020.8 hPa | 0 mm | - | 437 W/m² | - |
| 1778161840 | 27.78° C | 80% | 1020.6 hPa | 0 mm | - | 423 W/m² | - |
| 1778161536 | 27.22° C | 81% | 1020.6 hPa | 0 mm | - | 406 W/m² | - |
| 1778161232 | 27.22° C | 81% | 1020.5 hPa | 0 mm | - | 390 W/m² | - |
| 1778160928 | 27.22° C | 81% | 1020.7 hPa | 0 mm | - | 371 W/m² | - |
| 1778160627 | 27.22° C | 82% | 1020.8 hPa | 0 mm | - | 358 W/m² | - |
| 1778160323 | 26.67° C | 83% | 1020.7 hPa | 0 mm | - | 338 W/m² | - |
| 1778160019 | 26.67° C | 84% | 1020.6 hPa | 0 mm | - | 327 W/m² | - |
| 1778159717 | 26.67° C | 84% | 1020.6 hPa | 0 mm | - | 301 W/m² | - |
| 1778159414 | 26.67° C | 85% | 1020.7 hPa | 0 mm | - | 285 W/m² | - |
| 1778159111 | 26.11° C | 85% | 1020.5 hPa | 0 mm | - | 267 W/m² | - |
| 1778158809 | 26.11° C | 86% | 1020.5 hPa | 0 mm | - | 253 W/m² | - |
| 1778158507 | 26.11° C | 87% | 1020.4 hPa | 0 mm | - | 237 W/m² | - |
| 1778158204 | 25.56° C | 87% | 1020.3 hPa | 0 mm | - | 89 W/m² | - |
| 1778157900 | 25.56° C | 87% | 1020.6 hPa | 0 mm | - | 204 W/m² | - |
| 1778157598 | 25.56° C | 88% | 1020.5 hPa | 0 mm | - | 189 W/m² | - |
| 1778157296 | 25.56° C | 88% | 1020.6 hPa | 0 mm | - | 60 W/m² | - |
| 1778156992 | 25° C | 89% | 1020.7 hPa | 0 mm | - | 160 W/m² | - |
| 1778156687 | 25° C | 89% | 1020.6 hPa | 0 mm | - | 144 W/m² | - |
| 1778156384 | 24.44° C | 90% | 1020.6 hPa | 0 mm | - | 55 W/m² | - |
| 1778156079 | 24.44° C | 91% | 1020.6 hPa | 0 mm | - | 119 W/m² | - |
* Rain latest hour (hover to see other rain measurements)
** Current wind speed in m/s (hover to see current wind gust speed)